星链-33556 (STARLINK-33556)

导读 | 豆包AI

STARLINK-33556是美国SpaceX公司星链(Starlink)低轨通信星座中的一颗卫星,于2024年11月25日由猎鹰9号火箭发射升空,属于Starlink 9-13任务批次的V2 Mini卫星。星链星座旨在为全球提供宽带互联网服务,该卫星采用平板设计,搭载Ku/Ka波段通信载荷,配备氪工质霍尔推进器,具备自主避撞能力,设计寿命约5-7年,退役后将再入大气层烧毁。

Basic Information
目录编号:
62109
目录名称:
STARLINK-33556
国际标识:
2024-220X
轨道中心:
EARTH
卫星名称:
星链-33556
卫星全名:
星链-33556 (STARLINK-33556)
卫星状态:
在轨 (已飞行522 天)
发射日期:
2024-11-25 UTC
国别 :
美国 (US)
星等 :
--
Orbit Information
数据来源 国际轨道数据 AOE轨道数据
星历时间 2026-04-30T17:52:00+0800
16小时前
查看轨道信息
2026-04-26T08:00:00+0800
5天前
查看轨道信息
半长轴 6861.121km 6861.23km
偏心率 0.0000842 0.0001009
轨道倾角 42.998° 43.002°
近地点辐角 217.472° 244.129°
升交点赤经 273.246° 298.164°
平近点角 142.608° 309.572°
近地点 482.406km 482.4km
远地点 483.562km 483.786km
周期 94.265分钟 94.268分钟
每日圈数 15.27602 15.275655
Detailed Information
固有亮度:
5
最大亮度:
2.5
卫星平台:
Starlink V1.0
覆盖范围:
全球
运营商:
太空探索技术公司
运营商所在国:
美国
制造商(研发单位):
太空探索技术公司
制造商所在国:
美国
使用方式:
暂无
Satellite Introduction
Starlink 计划是 SpaceX 推出的全球卫星互联网项目,通过发射低轨道卫星,为全球尤其是偏远地区提供高速、低延迟的互联网服务。自 2019 年起,Starlink 已部署数千颗卫星,旨在缩小全球数字鸿沟,推动互联网普及。该项目还为军事、航空等行业提供通信支持,带来广泛经济效益。
2D Orbit Map
3D Orbit Map
Orbit Altitude Analysis Chart
Orbit Inclination Analysis Chart
Orbit Comprehensive Analysis Chart
View Comprehensive Chart